Simultaneous Nadir Overpasses (SNOs) Predictions

Prediction of SNOs between METOP-B and TERRA Satellite Orbit:

Table of predicted SNOs for the next 14.0 days since TLE Epoch: 11/11/2017
Index Date (METOP-B) Time (METOP-B) Lat,Lon (METOP-B) SZA (METOP-B ) Date (TERRA) Time (TERRA) Lat,Lon (TERRA) SZA (TERRA ) Distance(km) Time Diff (sec)
1 11/11/2017 12:26:13 81.30, 40.74 101.97 11/11/2017 12:27:05 81.30, 40.65 101.98 1.59 52
2 11/11/2017 13:16:52 -81.31,-151.40 77.96 11/11/2017 13:16:31 -81.32,-151.38 77.96 0.72 21
3 11/14/2017 08:00:35 81.31, 107.22 102.71 11/14/2017 08:01:20 81.30, 107.05 102.71 2.99 45
4 11/14/2017 08:51:14 -81.31, -84.90 77.22 11/14/2017 08:50:46 -81.32, -84.97 77.24 1.18 28
5 11/17/2017 03:34:57 81.31, 173.67 103.40 11/17/2017 03:35:34 81.31, 173.74 103.43 1.31 37
6 11/17/2017 04:25:37 -81.31, -18.82 76.57 11/17/2017 04:25:01 -81.31, -18.64 76.57 3.05 36
7 11/19/2017 23:09:18 81.31,-119.91 104.05 11/19/2017 23:09:48 81.30,-120.03 104.04 2.29 30
8 11/19/2017 23:59:57 -81.31, 48.03 75.88 11/19/2017 23:59:14 -81.32, 47.99 75.90 0.94 43
9 11/22/2017 18:43:40 81.31, -53.50 104.64 11/22/2017 18:44:02 81.30, -53.51 104.64 0.30 22




NCC Satellite Simultaneous Nadir Overpasses (SNOs) Prediction Service
